Home   Weather   Klagenfurt   Past weeks

Flag for Austria Past Weather in Klagenfurt, Carinthia, Austria — Yesterday and Last 2 Weeks

59 °F

Scattered clouds.

Feels Like: 59 °F
Forecast: 43 / 63 °F
Wind: 2 mph from North

Location: Klagenfurt-Flughafen

Current Time: Oct 24, 2016 at 2:32:56 PM

Latest Report: Oct 24, 2016 at 1:50 PM

Visibility: N/A

Pressure: 30.15 "Hg

Humidity: 63%

Dew Point: 46 °F

Location of KlagenfurtLocation

Past Weather in Klagenfurt — Graph


Klagenfurt Temperature Yesterday

Maximum temperature yesterday: 52 °F (at 4:20 PM)
Minimum temperature yesterday: 36 °F (at 1:20 AM)
Average temperature yesterday: 43 °F

High & Low Weather Summary for the Past Weeks

High63 °F (Oct 16, 4:20 PM)100% (Oct 11, 1:20 AM)30.30 "Hg (Oct 11, 1:20 AM)
Low30 °F (Oct 13, 6:50 AM)44% (Oct 9, 2:50 PM)29.92 "Hg (Oct 11, 3:20 PM)
Average47 °F87%30.08 "Hg
* Reported Oct 9 12:20 PM — Oct 24 12:50 PM, Klagenfurt, Weather by CustomWeather, © 2016

Note: Actual official high and low records may vary slightly from our data, if they occured in-between our weather recording intervals... More about our weather records


Klagenfurt Weather History for the Previous 24 Hours

Scroll right to see more
Time TempWeatherWind HumidityBarometerVisibility
12:50 PM
Mon, Oct 24
55 °FBroken clouds.2 mph67%30.15 "HgN/A
12:20 PM54 °FBroken clouds.2 mph67%30.18 "HgN/A
11:50 AM52 °FBroken clouds.2 mph72%30.18 "HgN/A
11:20 AM50 °FBroken clouds.1 mph82%30.18 "HgN/A
10:50 AM48 °FBroken clouds.1 mph87%30.18 "HgN/A
10:20 AM46 °FBroken clouds.1 mph87%30.18 "HgN/A
9:50 AM45 °FBroken clouds.2 mph93%30.18 "HgN/A
9:20 AM45 °FBroken clouds.1 mph87%30.18 "HgN/A
8:50 AM43 °FPartly sunny.1 mph93%30.18 "HgN/A
8:20 AM41 °FBroken clouds.2 mph93%30.18 "HgN/A
7:50 AM41 °FBroken clouds.2 mph93%30.15 "HgN/A
7:20 AM41 °FPartly cloudy.2 mph93%30.15 "HgN/A
6:50 AM41 °FPassing clouds.2 mph93%30.15 "HgN/A
6:20 AM39 °FPartly cloudy.1 mph100%30.12 "HgN/A
5:50 AM39 °FSleet. Light fog.1 mph100%30.12 "HgN/A
5:20 AM41 °FSleet. Overcast.2 mph93%30.12 "Hg3 mi
4:50 AM41 °FQuite cool.2 mph93%30.12 "HgN/A
4:20 AM41 °FPassing clouds.3 mph93%30.12 "HgN/A
3:50 AM41 °FSnow. Overcast.2 mph93%30.12 "Hg5 mi
3:20 AM41 °FFog.1 mph93%30.12 "Hg3 mi
2:50 AM41 °FPassing clouds.2 mph100%30.12 "HgN/A
2:20 AM41 °FPassing clouds.2 mph100%30.12 "HgN/A
1:50 AM43 °FPassing clouds.1 mph93%30.12 "HgN/A
1:20 AM43 °FPassing clouds.1 mph93%30.12 "HgN/A
12:50 AM43 °FPassing clouds.1 mph93%30.12 "HgN/A
12:20 AM43 °FPassing clouds.2 mph93%30.09 "HgN/A
11:50 PM
Sun, Oct 23
41 °FPassing clouds.2 mph100%30.09 "HgN/A
11:20 PM43 °FPassing clouds.1 mph93%30.09 "Hg6 mi
10:50 PM45 °FClear.1 mph93%30.09 "Hg10 mi
10:20 PM45 °FClear.1 mph93%30.09 "Hg10 mi
9:50 PM45 °FClear.1 mph93%30.09 "Hg10 mi
9:20 PM46 °FPassing clouds.2 mph87%30.09 "HgN/A
8:50 PM45 °FPassing clouds.1 mph93%30.09 "HgN/A
8:20 PM46 °FPassing clouds.1 mph87%30.07 "HgN/A
7:50 PM46 °FPassing clouds.1 mph87%30.07 "HgN/A
7:20 PM45 °FPassing clouds.1 mph93%30.07 "HgN/A
6:50 PM48 °FPassing clouds.2 mph82%30.07 "HgN/A
6:20 PM46 °FPartly cloudy.2 mph87%30.07 "HgN/A
5:50 PM50 °FScattered clouds.2 mph76%30.07 "HgN/A
5:20 PM52 °FScattered clouds.3 mph72%30.04 "HgN/A
4:50 PM52 °FScattered clouds.3 mph72%30.04 "HgN/A
4:20 PM52 °FPassing clouds.5 mph72%30.04 "HgN/A
3:50 PM50 °FPassing clouds.5 mph76%30.04 "HgN/A
3:20 PM50 °FPassing clouds.5 mph76%30.04 "HgN/A
2:50 PM50 °FPassing clouds.3 mph71%30.04 "HgN/A
2:20 PM50 °FPassing clouds.5 mph76%30.04 "HgN/A
Weather by CustomWeather, © 2016

See weather overviewHow to use our weather pages